This is the latest recevied weather packets stored in our database for station/object W6DSP. If no packets are shown the sender has not sent any weather packets the latest 10 day(s).
| Time | Temp. | Humidity | Pressure | Rain* | Wind** | Luminosity | Snow |
|---|---|---|---|---|---|---|---|
| 1778007264 | 10.56° C | 83% | 1009.1 hPa | 0 mm | - | - | - |
| 1778006508 | 10.56° C | 85% | 1009.3 hPa | 0 mm | - | - | - |
| 1778005793 | 10.56° C | 85% | 1009.4 hPa | 1.02 mm | - | - | - |
| 1778005101 | 10.56° C | 85% | 1009.4 hPa | 1.02 mm | - | - | - |
| 1778004402 | 10.56° C | 84% | 1009.5 hPa | 2.03 mm | - | - | - |
| 1778003647 | 10.56° C | 81% | 1009 hPa | 1.27 mm | - | - | - |
| 1778002922 | 11.11° C | 82% | 1009.1 hPa | 1.52 mm | - | - | - |
| 1778002201 | 11.11° C | 80% | 1009.2 hPa | 1.02 mm | - | - | - |
| 1778001479 | 11.11° C | 78% | 1008.9 hPa | 0 mm | - | - | - |
| 1778000751 | 11.67° C | 73% | 1009 hPa | 0 mm | - | - | - |
| 1778000055 | 11.67° C | 75% | 1008.8 hPa | 0 mm | - | - | - |
| 1777999318 | 11.67° C | 68% | 1008.3 hPa | 0 mm | - | - | - |
| 1777998594 | 12.22° C | 67% | 1008.4 hPa | 0 mm | - | - | - |
| 1777997838 | 12.22° C | 66% | 1008.5 hPa | 0 mm | - | - | - |
| 1777997106 | 12.22° C | 65% | 1008.8 hPa | 0 mm | - | - | - |
| 1777996408 | 12.22° C | 65% | 1008.5 hPa | 0 mm | - | - | - |
| 1777995710 | 12.22° C | 66% | 1008.5 hPa | 0 mm | - | - | - |
| 1777995021 | 12.22° C | 67% | 1008.5 hPa | 0 mm | - | - | - |
| 1777994267 | 12.22° C | 70% | 1008.5 hPa | 0 mm | - | - | - |
| 1777993539 | 11.67° C | 67% | 1008.6 hPa | 0 mm | - | - | - |
| 1777992838 | 12.22° C | 67% | 1008.7 hPa | 0 mm | - | - | - |
| 1777992110 | 12.22° C | 68% | 1008.4 hPa | 0 mm | - | - | - |
| 1777991355 | 12.22° C | 70% | 1008.6 hPa | 0 mm | - | - | - |
| 1777990642 | 12.78° C | 71% | 1008.4 hPa | 0 mm | - | - | - |
| 1777989912 | 12.22° C | 74% | 1008.2 hPa | 0 mm | - | - | - |
* Rain latest hour (hover to see other rain measurements)
** Current wind speed in m/s (hover to see current wind gust speed)